Other Surface Observations
Issued by NWS

Home | Current Version | Previous Version | Text Only | Print | Product List | Glossary On
Versions: 1 2 3 4 5 6 7 8 9 10 11 12 13 14 15 16 17 18 19 20 21 22 23 24 25 26 27 28 29 30 31 32 33 34 35 36 37 38 39 40 41 42 43 44 45 46 47 48 49 50
000
SXUS52 KTAE 210318
OSOTAE
OSOTAE
North Florida/South Alabama/Southwest Georgia Weather Roundup
National Weather Service Tallahassee Florida
1100 PM EDT MON APR 20 2015

Note: "fair" indicates few or no clouds below 12,000 feet with no
significant weather and/or obstructions to visibility.

!FLZ017-115-028-034-025-210400
...North Florida...

CITY           SKY/WX    TMP DP  RH WIND       PRES   REMARKS
TALLAHASSEE    PTCLDY    66  64  93 SW3       29.89R
APALACHICOLA   CLEAR     73  68  84 W8        29.89R
PERRY          MOCLDY    67  66  99 S3        29.91R
CROSS CITY       N/A     64  63  96 CALM      29.91R
JACKSONVILLE   MOCLDY    64  62  93 S6        29.90R
$$

!FLZ112-006-005-002-011-210400
...Florida Panhandle...

CITY           SKY/WX    TMP DP  RH WIND       PRES   REMARKS
MARIANNA       PTCLDY    69  69 100 W8        29.87R
BONIFAY        FAIR      69  66  90 SW6       29.89R
PANAMA CITY NW FAIR      70  67  90 SW7       29.88R
TYNDALL AFB    PTCLDY    72  68  85 W10G21    29.89R
TYND DRONE APT FAIR      73  69  87 W7G21     29.89R
DE FUNIAK SPR  FAIR      67  62  85 W5        29.90R
EGLIN AFB      MOCLDY    69  62  77 W3        29.89R
DESTIN         PTCLDY    73  63  70 VRB6      29.90R
HURLBURT       MOCLDY    71  57  60 W2        29.89R
CRESTVIEW      PTCLDY    68  62  81 W5        29.92R
PENSACOLA      CLEAR     69  61  75 NW7       29.91R
$$

!ALZ063-066-210400
...South Alabama...

CITY           SKY/WX    TMP DP  RH WIND       PRES   REMARKS
DOTHAN         CLOUDY    69  66  90 SW6       29.92R
OZARK CAIRNS   PTCLDY    67  62  85 W7        29.89R
FT RUCKER HELI MOCLDY    68  61  78 NW7       29.88R
RUCKER HELI 3  FAIR      67  59  73 NW7G15    29.91R
RUCKER HELI 2  NOT AVBL
FLORALA APT    PTCLDY    66  60  81 CALM      29.92R
ANDALUSIA      NOT AVBL
TROY           CLEAR     65  52  62 NW10      29.91R
EUFALA         FAIR      67  58  72 NW6       29.87R
MOBILE         PTCLDY    65  53  65 NW7       29.95R
$$

!GAZ120>161-210400
...Southwest and South Central Georgia...

CITY           SKY/WX    TMP DP  RH WIND       PRES   REMARKS
THOMASVILLE    FAIR      66  66 100 SW6       29.88R
BAINBRIDGE     FAIR      70  68  94 W6        29.88R
MOODY AFB      PTCLDY    63  61  94 S6        29.88R
VALDOSTA       CLOUDY    65  65 100 VRB5      29.89R
MOULTRIE       CLEAR     68  68 100 SW7       29.88R
BLAKELY        PTCLDY    70  70 100 W5        29.88R
ALBANY         MOCLDY    69  65  86 SW6       29.88R
TIFTON         MOCLDY    66  64  93 SW5       29.87R
FITZGERALD     FAIR      67  65  91 SW7       29.88R
CORDELE        FAIR      68  65  90 SW6       29.86R
AMERICUS       FAIR      64  64 100 W6        29.87R
HOMERVILLE     MOCLDY    64  64 100 S7        29.88S
$$

!GMZ750-755-770-775-210400
...Coastal and Buoy Obs...

STATION/POSITION TIME  TEMP    WIND        PRES    VSBY  WAVE
                       AIR SEA DIR/SP/G                  HT/PER
                 (UTC) (F)     (DEG/KT/KT) (MB)    (MI)  (FT/S)
KEATON BEACH     0300   73     240/ 15/ 16 1012.8R
CEDAR KEY        0300   72     170/ 12/ 13 1013.4R
C TOWER          0300   72     250/ 12/ 13 1012.7R
APALACHICOLA BUO 0250   75 75  210/ 10/ 12 1013.0R         3/ 5
PANAMA CITY BUOY 0250   75 75  280/ 14/ 17 1013.1R         3/ 7
MOBILE BUOY      0250   74 74  270/ 10/ 12 1014.0R         3/ 7
ORANGE BCH AL BU 0250   75 74  280/ 14/ 17 1012.2R         4/ 4
$$



USA.gov is the U.S. government's official web portal to all federal, state and local government web resources and services.